Regional Weather Roundup
Issued by NWS

Home | Current Version | Previous Version | Graphics & Text | Print | Product List | Glossary On
Versions: 1 2 3 4 5 6 7 8 9 10 11 12 13 14 15 16 17 18 19 20 21 22 23 24 25 26 27 28 29 30 31 32 33 34 35 36 37 38 39 40 41 42 43 44 45 46 47 48 49 50
000
ASUS45 KTFX 250519
RWRMT
MONTANA HOURLY WEATHER ROUNDUP
NATIONAL WEATHER SERVICE GREAT FALLS MT
1119 PM MDT FRI OCT 24 2014

NOTE: "FAIR" INDICATES FEW OR NO CLOUDS BELOW 12000 FEET WITH NO
SIGNIFICANT WEATHER AND/OR OBSTRUCTIONS TO VISIBILITY.

* THESE STATIONS ARE NOT UNDER NWS QUALITY CONTROL. THEY DO NOT
   REPORT WEATHER SUCH AS PRECIPITATION OR FOG.

MTZ001>007-043-250600-
WEST OF THE DIVIDE
CITY           SKY/WX    TMP DP  RH WIND       PRES   REMARKS
KALISPELL      MOCLDY    43  39  86 CALM      30.06S
MISSOULA       MOCLDY    43  43 100 N5        30.08S
BUTTE          PTCLDY    36  36 100 SE6       30.12R WCI  31
MULLAN PASS    LGT RAIN  36  36 100 SE12G18   30.03F VSB 1/2  WCI  28
* ESSEX        N/A       39  37  93 N/A        N/A
* LINCOLN      N/A       41  40  96 NW2        N/A
* LOOKOUT PASS N/A       41  40  96 SE2G11     N/A
* POLSON       N/A       42  41  96 N/A        N/A
* RONAN APT    CLOUDY    46  43  89 N/A        N/A
* SEELEY LAKE  N/A       42  41  96 N/A        N/A
* THOMP F APT  CLOUDY    49  23  36 NE4        N/A
$$

MTZ008-052>055-250600-
SOUTHWEST MONTANA
CITY           SKY/WX    TMP DP  RH WIND       PRES   REMARKS
BOZEMAN        CLEAR     39  37  93 S5        30.11R WCI  35
DILLON         MOCLDY    36  36 100 SE8       30.10S WCI  30
W YELLOWSTONE  CLEAR     37  27  67 SE3       30.20S
* THREE FORKS  PTCLDY    39  16  39 N/A        N/A
* BOULDER HILL N/A       40  37  89 S6         N/A   WCI  36
* MONIDA PASS  N/A       44  25  47 SE8        N/A
* RAYNOLDS PAS N/A       44  28  53 S6         N/A
* WHITEHALL    N/A       40  38  93 N5         N/A   WCI  36
* WISE RIVER   N/A       37  35  92 SE3        N/A
$$

MTZ009>010-012-014-046-048-049-054-250600-
EAST SLOPES AND CENTRAL MONTANA
CITY           SKY/WX    TMP DP  RH WIND       PRES   REMARKS
CUT BANK       CLOUDY    45  34  65 E3        30.07R
GREAT FALLS    CLOUDY    46  39  77 E6        30.07S
HELENA         PTCLDY    46  39  77 CALM      30.08S
* CONRAD       CLOUDY    45  36  71 N/A        N/A
* DEARBORN     N/A       48  44  86 N/A        N/A
* EAST GLACIER N/A       41  31  68 W6G12      N/A
* MONARCH      N/A       43  36  76 S2         N/A
* PENDROY      N/A       42  33  71 S4         N/A
* SAINT MARY   N/A       40  31  70 SE3G8      N/A
* SWEET GRASS  N/A       44  29  56 W8         N/A
* WHITE SULPH  N/A       41  36  82 NE3        N/A
$$

MTZ011-013-016-021-035-040-045-047-050-051-250600-
NORTH CENTRAL MONTANA
CITY           SKY/WX    TMP DP  RH WIND       PRES   REMARKS
HAVRE          MOCLDY    39  30  70 CALM      30.07S
LEWISTOWN      CLOUDY    46  43  89 S5        30.11S
* CHINOOK      PTCLDY    39  30  70 CALM      30.08R
* FORT BENTON  CLOUDY    48  36  63 CALM      30.08F
* CHESTER      N/A       40  30  68 N1         N/A
* DENTON       N/A       45  42  89 NE1        N/A
* GEYSER       N/A       46  42  86 E5         N/A
* JUDITH GAP   N/A       45  37  74 NW5        N/A
* LOMA         N/A       48  35  61 N/A        N/A
$$

MTZ017>020-022>027-061-062-250600-
NORTHEAST MONTANA
CITY           SKY/WX    TMP DP  RH WIND       PRES   REMARKS
GLASGOW        MOCLDY    45  28  51 CALM      30.07R
GLENDIVE       CLOUDY    46  32  58 NW6       30.11S
JORDAN         CLOUDY    43  34  71 CALM      30.10R
SIDNEY         MOCLDY    48  30  50 W5        30.10R
WOLF POINT     MOCLDY    39  28  65 NW3       30.08S
* BEAVER HILL  N/A       49  29  46 NW2        N/A
* CIRCLE       N/A       40  32  73 N/A        N/A
* LINDSAY DVD  N/A       47  29  50 SW2        N/A
* NAVAJO       N/A       38  27  65 W12        N/A   WCI  30
$$

MTZ028>042-056>058-250600-
SOUTHCENTRAL AND SOUTHEAST MONTANA
CITY           SKY/WX    TMP DP  RH WIND       PRES   REMARKS
BAKER          CLOUDY    45  32  60 CALM      30.12S
BILLINGS       CLEAR     48  36  63 NE5       30.10S
LIVINGSTON     CLEAR     45  37  74 SE7       30.10R
MILES CITY     CLOUDY    52  34  50 CALM      30.11R
* LAUREL APT   CLEAR     46  30  54 N/A        N/A
* ROUNDUP APT  PTCLDY    48  36  63 N/A        N/A
* ALZADA       N/A       48  29  48 N/A        N/A
* HYSHAM       N/A       53  29  40 SE7        N/A
* LAME DEER    N/A       49  29  46 SE6        N/A
* REED POINT   N/A       40  36  86 N/A        N/A
* ROSCOE HILL  N/A       44  32  63 S4         N/A
$$

REGIONAL REPORTS...DAKOTAS
CITY           SKY/WX    TMP DP  RH WIND       PRES   REMARKS
WILLISTON      PTCLDY    43  27  53 W10       30.06R
DICKINSON      CLOUDY    45  32  60 W8        30.08R
BEACH          N/A       46  32  58 W5        30.11S
CROSBY         CLEAR     39  28  65 W9        30.04R WCI  33
TIOGA          CLEAR     32  28  85 W9        30.07R WCI  24
BISMARCK       PTCLDY    46  30  54 NW8       30.05S
GRAND FORKS    CLEAR     52  36  55 W8        29.90R
FARGO          PTCLDY    48  32  54 W10       29.95R
BUFFALO SD     CLOUDY    52  30  43 W6        30.06R
RAPID CITY     CLEAR     45  34  65 NW8       30.13R
$$

REGIONAL REPORTS...WYOMING/IDAHO/WASHINGTON
CITY           SKY/WX    TMP DP  RH WIND       PRES   REMARKS
GILLETTE       CLEAR     34  28  79 CALM      30.14R
SHERIDAN       CLEAR     34  28  79 CALM      30.14R
CODY           CLEAR     37  30  76 S3        30.12S
YELLOWSTONE LA CLEAR     28  23  81 NW5       30.29R WCI  22
SALMON         CLOUDY    37  36  96 CALM      30.10S VSB M1/4
MULLAN PASS    LGT RAIN  36  36 100 SE12G18   30.03S VSB 1/2  WCI  28
SAND POINT     CLOUDY    46  39  77 NE13      30.02S
SPOKANE        LGT RAIN  48  45  89 NE7       29.98S
$$

REGIONAL REPORTS...ALBERTA
CITY           SKY/WX    TMP DP  RH WIND       PRES   REMARKS
CALGARY        MOCLDY    36  16  44 NE10      30.01R WCI  29
LETHBRIDGE     MOCLDY    39  28  65 S7        30.05R WCI  34
MEDICINE HAT   MOCLDY    41  30  65 S7        30.03R
EDMONTON       N/A       27  18  69 SW7       29.97R WCI  19
WATERTON GATE  N/A       43  34  71 SW2        N/A
CARDSTON       N/A       37  30  76 NE1        N/A
MILK RIVER     N/A       36  30  79 NE2        N/A
$$

REGIONAL REPORTS...SASKATCHEWAN
CITY           SKY/WX    TMP DP  RH WIND       PRES   REMARKS
SWIFT CURRENT  MOCLDY    37  28  70 SW9       30.02R WCI  30
REGINA         N/A       34  30  85 W5        30.00R WCI  29
VAL MARIE      N/A       36  28  73 SW6        N/A   WCI  31
ASSINIBOIA     N/A       34  28  79 SW9        N/A   WCI  27
CORONACH       N/A       32  25  75 NW6        N/A   WCI  26

$$




USA.gov is the U.S. government's official web portal to all federal, state and local government web resources and services.